Stations météo

réclame
Mon MeteoGroup
Tarbes/Ossun, France (7621): Température de l'air & dewpoint: 17.09.2017 22:00:00 - 23.09.2017 22:00:00 (CEST)Tarbes/Ossun, France (7621): Température de l'air 5cm: 17.09.2017 22:00:00 - 23.09.2017 22:00:00 (CEST)Tarbes/Ossun, France (7621): Température de l'air -20cm & Température de l'air -100cm: 17.09.2017 22:00:00 - 23.09.2017 22:00:00 (CEST)Tarbes/Ossun, France (7621): Vitesse du vent & gusts: 17.09.2017 22:00:00 - 23.09.2017 22:00:00 (CEST)Tarbes/Ossun, France (7621): Direction du vent: 17.09.2017 22:00:00 - 23.09.2017 22:00:00 (CEST)Tarbes/Ossun, France (7621): reduced air pressure: 17.09.2017 22:00:00 - 23.09.2017 22:00:00 (CEST)Tarbes/Ossun, France (7621): visibility: 17.09.2017 22:00:00 - 23.09.2017 22:00:00 (CEST)Tarbes/Ossun, France (7621): Ensoleillement: 17.09.2017 22:00:00 - 23.09.2017 22:00:00 (CEST)Tarbes/Ossun, France (7621): Quantités de précipitations: 17.09.2017 22:00:00 - 23.09.2017 22:00:00 (CEST)
Date & Time tt [°C] td [°C] tt 5cm [°C] tt -20cm [°C] tt -100cm [°C] ff [km/h] ff [knt] fx [km/h] fx [knt] dd ppp [hPa] vv [km] sd [min] rr [mm]
23.09.2017 22:00:00 - - - - - - - - - - - - - -
23.09.2017 21:00:00 15,7 13,4 12,7 16,9 16,8 13 7 16 8 S 1018,9 35 0 0,0
23.09.2017 20:00:00 19,0 14,7 - - - 9 5 11 6 SSW 1018,0 40 - -
23.09.2017 19:00:00 24,8 11,7 - - - 5 3 11 6 E 1017,0 55 - 0,0
23.09.2017 18:00:00 25,1 12,3 25,9 16,3 16,8 6 3 16 9 NE 1016,8 53 60 0,0
23.09.2017 17:00:00 25,7 12,5 29,4 16,1 16,8 7 4 16 9 N 1016,9 43 60 0,0
23.09.2017 16:00:00 25,7 11,1 32,3 15,9 16,8 6 4 16 9 NNE 1017,2 52 60 0,0
23.09.2017 15:00:00 25,7 12,2 30,6 15,8 16,8 7 4 17 9 E 1017,5 19 60 0,0
23.09.2017 14:00:00 24,2 13,7 29,4 15,6 16,8 9 5 19 11 N 1017,6 41 60 0,0
23.09.2017 13:00:00 22,7 13,5 27,1 15,6 16,8 8 4 17 9 NNE 1017,9 49 58 0,0
23.09.2017 12:00:00 20,9 12,8 21,3 15,6 16,8 6 4 11 6 NE 1018,7 28 60 0,0
23.09.2017 11:00:00 17,1 13,8 - - - 4 2 9 5 NNW 1019,5 29 - -
23.09.2017 10:00:00 13,7 12,8 10,3 15,8 16,8 2 1 5 3 NE 1020,1 20 60 0,0
23.09.2017 09:00:00 10,5 10,2 6,1 15,9 16,8 3 2 6 3 SSE 1020,6 19 41 0,0
23.09.2017 08:00:00 8,5 8,1 5,6 16,0 16,8 4 2 8 4 S 1021,2 14 0 0,0
23.09.2017 07:00:00 8,8 8,2 5,5 16,0 16,8 5 3 8 4 SW 1021,3 15 0 0,0
23.09.2017 06:00:00 9,5 8,9 6,2 16,1 16,8 4 2 7 4 SSE 1021,4 6 0 0,0
23.09.2017 05:00:00 9,9 9,3 6,9 16,2 16,9 3 2 8 5 SSE 1021,9 4,5 0 0,0
23.09.2017 04:00:00 10,0 9,2 7,7 16,3 16,8 5 3 9 5 S 1022,3 7 0 0,0
23.09.2017 03:00:00 11,6 11,0 7,8 16,3 16,9 5 3 8 4 SE 1022,5 9 0 0,0
23.09.2017 02:00:00 11,5 10,9 9,2 16,4 16,9 6 4 10 6 S 1022,9 11 0 0,0
23.09.2017 01:00:00 11,3 10,5 9,7 16,4 16,8 8 4 9 5 SSW 1023,0 8 0 0,0
23.09.2017 00:00:00 12,7 11,6 10,9 16,4 16,9 2 1 7 4 S 1022,8 13 0 0,0
22.09.2017 23:00:00 13,2 12,3 12,1 16,4 16,9 3 1 7 4 NNW 1022,8 10 0 0,0
22.09.2017 22:00:00 13,8 12,5 12,2 16,4 16,9 6 4 11 6 SW 1022,7 18 0 0,0
22.09.2017 21:00:00 15,1 13,0 - - - 2 1 9 5 SSE 1022,2 13 - 0,0
22.09.2017 20:00:00 15,5 12,8 14,8 16,3 16,8 5 3 9 5 SSE 1022,1 20 0 0,0
22.09.2017 19:00:00 16,2 12,0 15,8 16,3 16,9 3 2 7 4 ENE 1022,0 41 0 0,0
22.09.2017 18:00:00 17,0 11,7 18,2 16,3 16,9 3 1 13 7 ENE 1022,0 40 0 0,0
22.09.2017 17:00:00 17,0 12,7 17,7 16,2 16,9 5 3 24 13 NW 1022,3 20 0 0,2
22.09.2017 16:00:00 16,4 12,9 17,6 16,2 16,9 6 4 10 6 SSW 1022,3 29 0 0,0
22.09.2017 15:00:00 16,1 11,7 17,4 16,2 16,9 7 4 14 8 NW 1022,7 41 0 0,0
22.09.2017 14:00:00 16,1 11,3 17,1 16,1 16,9 6 3 18 10 N 1022,3 42 0 0,0
22.09.2017 13:00:00 16,1 13,6 17,0 16,1 16,9 12 6 24 13 NNW 1022,5 21 0 0,0
22.09.2017 12:00:00 15,8 13,1 16,6 16,1 16,9 7 4 16 9 SE 1021,9 29 0 0,0
22.09.2017 11:00:00 14,9 13,6 14,6 16,1 16,9 3 2 17 9 SW 1022,2 19 0 0,0
22.09.2017 10:00:00 14,1 13,1 14,1 16,2 16,9 3 2 14 8 NNW 1022,3 16 0 0,2
22.09.2017 09:00:00 13,3 12,4 - - - 5 3 11 6 SW 1021,9 19 - 0,0
22.09.2017 08:00:00 12,9 11,8 10,9 16,3 16,9 10 5 15 8 SE 1021,4 24 0 0,0
22.09.2017 07:00:00 13,0 11,4 11,6 16,3 16,9 6 4 11 6 SSE 1021,4 34 0 0,0
22.09.2017 06:00:00 13,3 12,0 11,8 16,4 16,9 4 2 20 11 SW 1021,6 9 0 0,0
22.09.2017 05:00:00 13,7 12,9 10,7 16,4 16,9 8 4 24 13 SW 1021,8 19 0 0,0
22.09.2017 04:00:00 12,4 11,3 10,7 16,4 16,9 9 5 18 10 SSW 1022,0 27 0 0,0
22.09.2017 03:00:00 13,4 12,5 11,4 16,5 16,9 7 4 10 5 SSW 1021,9 25 0 0,0
22.09.2017 02:00:00 13,8 12,5 10,3 16,6 16,9 6 4 11 6 SSW 1021,6 29 0 0,0
22.09.2017 01:00:00 14,0 12,6 10,9 16,6 16,9 6 4 16 9 SW 1021,5 26 0 0,0
22.09.2017 00:00:00 14,4 12,6 11,6 16,6 16,9 8 5 21 11 SW 1021,2 24 0 0,0
21.09.2017 23:00:00 14,9 12,8 11,9 16,6 17,0 8 5 24 13 WSW 1021,0 29 0 0,0
21.09.2017 22:00:00 15,9 12,1 12,9 16,5 16,9 13 7 26 14 WSW 1020,7 36 0 0,0
21.09.2017 21:00:00 16,3 12,5 12,4 16,5 17,0 11 6 21 12 WSW 1020,0 38 0 0,0
21.09.2017 20:00:00 18,0 11,5 13,6 16,3 17,0 10 5 16 9 WNW 1018,6 45 0 0,0
21.09.2017 19:00:00 21,7 11,1 19,2 16,2 17,0 11 6 19 10 WNW 1017,3 46 58 0,0
21.09.2017 18:00:00 22,5 8,6 21,7 16,0 16,9 10 5 20 11 WNW 1016,6 40 49 0,0
21.09.2017 17:00:00 23,7 9,3 26,9 15,8 17,0 11 6 24 13 NW 1016,1 50 48 0,0
21.09.2017 16:00:00 23,4 11,4 28,5 15,6 17,0 12 7 32 18 W 1016,0 20 50 0,0
21.09.2017 15:00:00 24,1 8,1 31,5 15,5 17,0 7 4 17 9 NW 1016,0 19 60 0,0
21.09.2017 14:00:00 23,5 10,2 30,2 15,4 17,0 9 5 18 10 W 1016,2 19 60 0,0
21.09.2017 13:00:00 22,7 8,4 25,9 15,3 17,0 10 5 20 11 W 1016,6 14 60 0,0
21.09.2017 12:00:00 22,1 7,9 22,9 15,3 17,0 8 4 26 14 WNW 1016,7 19 60 0,0
21.09.2017 11:00:00 21,2 10,7 16,7 15,4 17,0 4 2 13 7 SSW 1016,7 40 60 0,0
21.09.2017 10:00:00 17,4 9,8 11,2 15,5 17,0 8 5 16 9 SSE 1016,9 34 60 0,0
21.09.2017 09:00:00 13,4 8,2 7,8 15,5 17,0 13 7 18 10 S 1017,3 36 48 0,0
21.09.2017 08:00:00 10,9 6,6 7,3 15,6 17,0 13 7 22 12 S 1017,4 45 0 0,0
21.09.2017 07:00:00 10,6 6,7 5,8 15,8 17,0 15 8 21 12 S 1017,0 47 0 0,0
21.09.2017 06:00:00 8,3 7,5 5,2 15,9 17,0 10 6 16 9 SSE 1017,5 47 0 0,0
21.09.2017 05:00:00 7,8 6,7 4,6 16,0 17,0 8 5 11 6 SSE 1017,7 41 0 0,0
21.09.2017 04:00:00 6,7 6,0 4,5 16,1 17,0 6 3 7 4 S 1018,2 40 0 0,0
21.09.2017 03:00:00 7,0 6,3 5,0 16,2 17,0 5 3 8 4 SSE 1018,6 39 0 0,0
21.09.2017 02:00:00 8,0 7,1 5,2 16,3 17,0 4 2 8 4 SSW 1018,6 44 0 0,0
21.09.2017 01:00:00 8,0 7,1 5,7 16,3 17,0 5 3 9 5 S 1018,8 39 0 0,0
21.09.2017 00:00:00 8,4 7,2 5,9 16,4 17,0 5 3 9 5 SSW 1019,2 47 0 0,0
20.09.2017 23:00:00 9,7 8,3 6,6 16,4 17,0 4 2 7 4 S 1019,1 51 0 0,0
20.09.2017 22:00:00 10,6 8,5 7,2 16,4 17,0 4 2 8 4 SSW 1019,5 50 0 0,0
20.09.2017 21:00:00 11,8 8,6 8,4 16,4 17,1 5 3 7 4 S 1019,7 56 0 0,0
20.09.2017 20:00:00 16,9 7,3 11,1 16,2 17,1 5 3 15 8 NE 1018,9 60 39 0,0
20.09.2017 19:00:00 18,9 7,3 16,1 16,0 17,1 7 4 18 10 ENE 1018,9 56 60 0,0
20.09.2017 18:00:00 19,7 7,4 21,0 15,9 17,1 10 5 18 10 NNE 1019,0 41 60 0,0
20.09.2017 17:00:00 19,8 7,2 25,7 15,6 17,1 11 6 24 13 N 1019,3 33 60 0,0
20.09.2017 16:00:00 20,0 8,0 28,3 15,5 17,1 11 6 24 13 NE 1019,6 50 60 0,0
20.09.2017 15:00:00 19,3 6,7 28,2 15,4 17,1 9 5 24 13 NE 1019,9 53 60 0,0
20.09.2017 14:00:00 19,2 7,3 27,0 15,3 17,1 8 4 24 13 NE 1020,6 38 60 0,0
20.09.2017 13:00:00 17,7 8,0 23,0 15,3 17,1 11 6 28 15 NE 1021,5 57 60 0,0
20.09.2017 12:00:00 16,7 8,1 18,8 15,3 17,1 12 7 24 13 ENE 1021,9 60 60 0,0
20.09.2017 11:00:00 14,8 8,7 12,7 15,4 17,1 6 3 13 7 NE 1022,6 57 60 0,0
20.09.2017 10:00:00 11,9 8,2 8,8 15,5 17,1 2 1 6 4 S 1023,4 48 60 0,0
20.09.2017 09:00:00 8,8 7,9 4,0 15,6 17,1 4 2 10 5 SSE 1024,1 42 51 0,0
20.09.2017 08:00:00 5,5 4,6 3,6 15,7 17,1 7 4 10 5 S 1024,7 38 0 0,0
20.09.2017 07:00:00 5,7 5,0 3,6 15,8 17,1 5 3 10 5 SSE 1024,7 35 0 0,0
20.09.2017 06:00:00 6,7 5,8 4,3 15,9 17,1 6 3 11 6 S 1024,8 45 0 0,0
20.09.2017 05:00:00 6,9 5,7 5,0 16,0 17,1 9 5 14 7 S 1024,8 50 0 0,0
20.09.2017 04:00:00 8,0 6,5 6,2 16,0 17,2 10 5 15 8 S 1025,2 52 0 0,0
20.09.2017 03:00:00 9,7 8,8 7,2 16,1 17,2 5 3 9 5 SSW 1025,2 43 0 0,0
20.09.2017 02:00:00 8,9 7,7 6,9 16,2 17,2 6 4 9 5 S 1025,6 43 0 0,0
20.09.2017 01:00:00 10,5 8,8 8,9 16,2 17,2 5 3 10 5 S 1025,6 48 0 0,0
20.09.2017 00:00:00 11,8 9,4 10,2 16,2 17,2 5 3 8 4 SSE 1026,0 54 0 0,0
19.09.2017 23:00:00 11,5 9,6 9,2 16,3 17,2 8 4 12 6 S 1026,4 54 0 0,0
19.09.2017 22:00:00 10,8 8,7 7,7 16,3 17,2 5 3 13 7 S 1026,4 59 0 0,0
19.09.2017 21:00:00 11,1 7,6 8,2 16,2 17,2 6 4 14 8 SW 1025,7 60 0 0,0
19.09.2017 20:00:00 13,9 7,9 10,4 16,2 17,2 9 5 18 10 WNW 1024,5 60 41 0,0
19.09.2017 19:00:00 17,2 7,5 15,6 16,0 17,2 11 6 35 19 WNW 1023,9 51 60 0,0
19.09.2017 18:00:00 18,2 7,9 19,6 15,9 17,2 16 8 27 15 W 1023,5 20 46 0,0
19.09.2017 17:00:00 18,6 7,1 25,6 15,7 17,2 17 9 36 20 W 1023,7 42 54 0,0
19.09.2017 16:00:00 18,3 5,5 24,0 15,6 17,2 21 11 35 19 W 1024,0 19 48 0,0
19.09.2017 15:00:00 18,0 7,4 21,7 15,6 17,2 21 11 34 18 W 1024,6 42 42 0,0
19.09.2017 14:00:00 17,9 7,6 20,2 15,5 17,2 15 8 44 24 W 1025,0 47 52 0,0
19.09.2017 13:00:00 16,4 8,1 21,5 15,5 17,2 22 12 32 17 W 1024,9 33 52 0,0
19.09.2017 12:00:00 15,7 9,6 16,8 15,5 17,2 18 10 32 18 W 1025,0 60 48 0,0
19.09.2017 11:00:00 14,9 9,9 14,3 15,6 17,3 15 8 22 12 W 1025,3 60 58 0,0
19.09.2017 10:00:00 13,2 9,8 - - - 5 3 13 7 S 1025,1 50 - 0,0
19.09.2017 09:00:00 10,2 8,1 7,2 15,7 17,3 10 5 18 10 S 1025,1 36 44 0,0
19.09.2017 08:00:00 8,2 7,3 6,4 15,8 17,3 11 6 17 9 S 1025,4 54 0 0,0
19.09.2017 07:00:00 8,2 7,3 6,3 15,8 17,3 9 5 14 7 SSW 1025,1 56 0 0,0
19.09.2017 06:00:00 8,6 7,7 6,4 15,9 17,3 8 4 13 7 SSW 1024,9 48 0 0,2
19.09.2017 05:00:00 10,0 9,1 8,3 16,0 17,3 6 3 9 5 SSW 1024,4 35 0 0,0
19.09.2017 04:00:00 10,6 9,8 8,7 16,0 17,3 7 4 16 9 SW 1024,4 20 0 0,0
19.09.2017 03:00:00 11,3 10,0 9,1 16,0 17,3 8 4 20 11 W 1024,6 26 0 0,0
19.09.2017 02:00:00 11,5 9,7 10,6 16,1 17,3 9 5 18 10 W 1024,2 36 0 0,0
19.09.2017 01:00:00 12,4 11,1 12,0 16,1 17,3 10 6 18 10 WNW 1023,8 26 0 0,0
19.09.2017 00:00:00 12,7 11,6 11,7 16,1 17,3 5 3 11 6 SW 1023,9 49 0 0,0
18.09.2017 23:00:00 12,6 11,3 10,5 16,1 17,3 8 4 15 8 S 1023,7 50 0 0,0
18.09.2017 22:00:00 12,4 11,3 8,1 16,2 17,3 6 4 13 7 SW 1023,6 59 0 0,0
18.09.2017 21:00:00 11,8 10,5 8,6 16,1 17,3 4 2 16 9 E 1022,6 51 0 0,0
18.09.2017 20:00:00 13,9 11,4 - - - 11 6 26 14 WSW 1021,3 60 - -
18.09.2017 19:00:00 15,1 11,9 15,6 16,1 17,3 15 8 31 17 WSW 1020,7 59 18 0,0
18.09.2017 18:00:00 14,8 12,1 17,2 16,0 17,4 14 8 29 16 W 1020,2 19 1 0,0
18.09.2017 17:00:00 15,1 12,0 16,6 15,9 17,3 16 9 39 21 W 1019,7 55 24 0,0
18.09.2017 16:00:00 14,1 12,3 14,4 15,9 17,4 15 8 30 16 W 1019,7 59 0 1,8
18.09.2017 15:00:00 14,6 11,9 17,5 15,9 17,4 16 8 36 19 W 1019,4 29 4 0,2
18.09.2017 14:00:00 15,0 11,6 17,4 15,9 17,4 19 10 31 17 W 1019,2 43 0 0,0
18.09.2017 13:00:00 14,7 11,3 17,2 15,8 17,4 16 8 29 15 W 1018,9 56 0 0,0
18.09.2017 12:00:00 14,5 10,3 16,2 15,8 17,4 13 7 27 15 W 1018,6 59 0 0,0
18.09.2017 11:00:00 13,6 11,3 13,0 15,9 17,4 6 3 13 7 WSW 1018,5 57 0 0,0
18.09.2017 10:00:00 12,1 11,2 11,7 15,9 17,4 8 4 16 8 S 1018,4 18 0 0,6
18.09.2017 09:00:00 11,7 10,8 11,3 15,9 17,4 10 5 13 7 S 1018,2 21 0 0,4
18.09.2017 08:00:00 11,6 10,7 11,2 15,9 17,4 8 5 12 7 S 1018,0 22 0 0,8
18.09.2017 07:00:00 11,7 10,8 11,4 16,0 17,5 7 4 11 6 SSE 1017,9 11 0 1,6
18.09.2017 06:00:00 11,8 10,9 11,5 16,0 17,4 6 3 8 4 S 1018,2 7 0 1,6
18.09.2017 05:00:00 11,9 10,5 11,4 16,1 17,5 2 1 9 5 W 1018,2 13 0 0,6
18.09.2017 04:00:00 12,0 10,2 11,3 16,0 17,4 7 4 13 7 SSW 1017,9 49 0 0,0
18.09.2017 03:00:00 12,4 9,8 11,5 16,1 17,5 9 5 11 6 S 1018,3 57 0 0,0
18.09.2017 02:00:00 12,2 10,3 11,5 16,1 17,5 8 5 14 7 S 1018,8 50 0 0,0
18.09.2017 01:00:00 12,2 10,3 11,2 16,2 17,5 11 6 15 8 S 1019,3 52 0 0,0
18.09.2017 00:00:00 12,1 10,0 - - - 8 4 13 7 SSW 1019,5 50 - 0,0
17.09.2017 23:00:00 12,4 10,1 11,5 16,2 17,5 8 4 12 6 SSW 1019,9 56 0 0,0
17.09.2017 22:00:00 13,5 9,7 12,3 16,2 17,5 8 5 17 9 WSW 1019,8 57 0 0,0

tt = Température de l'air
td = dewpoint
tt 5cm = Température de l'air 5cm
tt -20cm = Température de l'air -20cm
tt -100cm = Température de l'air -100cm
ff = Vitesse du vent
fx = gusts
dd = Direction du vent
ppp = reduced air pressure
vv = visibility
sd = Ensoleillement
rr = Quantités de précipitations

stations d'obs. à proximité